Location: Newark
(45.8667°N, 9.7333°E)
Time: 18:04:36
(UTC+00:00)

A-11 Canister half - Pass Details

Date: 22 January 2020
Orbit: 1517 x 1683 km, 47.2° (Epoch: 22 February)

Event Time Altitude Azimuth Distance (km) Brightness Sun altitude
Rises 08:10:33 0° 285° (WNW) 4,676 11.0 10.0°
Reaches altitude 10° 08:15:46 10° 261° (W) 3,709 10.7 10.7°
Maximum altitude 08:19:37 13° 236° (SW) 3,471 10.8 11.2°
Drops below altitude 10° 08:23:30 10° 211° (SSW) 3,745 11.3 11.7°
Sets 08:28:54 0° 187° (S) 4,762 12.2 12.3°
